www.pogodaiklimat.ru
Время
(UTC), дата
18 17.01
21 17.01
00 18.01
03 18.01
06 18.01
09 18.01
12 18.01
15 18.01
18 18.01
21 18.01
00 19.01
03 19.01
06 19.01
09 19.01
12 19.01
15 19.01
18 19.01
21 19.01
00 20.01
03 20.01
06 20.01
09 20.01
12 20.01
15 20.01
18 20.01
21 20.01
00 21.01
03 21.01
06 21.01
09 21.01
12 21.01
15 21.01
18 21.01
21 21.01
00 22.01
03 22.01
06 22.01
09 22.01
12 22.01
15 22.01
18 22.01
21 22.01
00 23.01
03 23.01
06 23.01
09 23.01
12 23.01
15 23.01
18 23.01
21 23.01
00 24.01
03 24.01
06 24.01
09 24.01
12 24.01
15 24.01
Ветер
(напр.,м/с)
Видим. Явления Облачность Т
(С)
Тd
(С)
f
(%)
Тe
(С)
Тes
(С)
Комфортность P
(гПа)
Po
(гПа)
Тmin
(С)
Tmax
(С)
R
(мм)
R24
(мм)
S
(см)
Ю 14-20
{23}
200 м ливневой снег {метель} 10/10 240 м
[Cb cap]
-6.3 -7.5 91 -18 -18 по сезону 1020.5 992.3
Ю 15-21
{22}
200 м сильн. снег {ливн. осадки} 10/10 210 м
[Frnb Ns]
-5.4 -6.8 90 -17 -17 по сезону 1019.8 991.7
Ю 10-15
{21}
500 м сильн. снег {ливн. осадки} 10/10 240 м
[Frnb Ns]
-3.9 -5.1 91 -13 -13 по сезону 1021.5 993.5 -6.6 5 7
Ю 8-12
{15}
500 м ливневой снег 10/10 300 м
[Cb cap]
-3.2 -4.3 92 -12 -12 по сезону 1023.9 995.9
Ю 9-11
{12}
500 м ливневой снег 10/10 300 м
[Cb cap]
-2.7 -4.0 91 -11 -11 по сезону 1027.2 999.3
Ю 7
{11}
10 км слаб. ливневой снег {метель} 10/10 600 м
[Cb cap]
-2.6 -4.2 89 -10 -10 по сезону 1028.0 1000.1
Ю 6 4000 м слаб. снег 10/10 300 м
[Sc]
-2.7 -4.0 91 -10 -10 по сезону 1029.0 1001.0 -1.5 5
Ю 7-11
{11}
20 км позёмок {снег} 10/10 600 м
[Sc]
-4.7 -7.1 83 -13 -13 по сезону 1028.3 1000.2
Ю 9-12
{12}
20 км позёмок {снег} 10/10 600 м
[Sc]
-5.9 -9.4 76 -15 -15 по сезону 1026.2 997.9
Ю 9-14
{16}
10 км слаб. снег {метель} 10/10 600 м
[Sc]
-6.0 -9.1 79 -15 -15 по сезону 1022.8 994.6
Ю 9-12
{16}
20 км позёмок {снег} 10/10 600 м
[Sc]
-5.5 -9.7 72 -15 -15 по сезону 1020.2 992.1 -6.0 2 10
Ю 10-14
{16}
10 км сильный позёмок {ливн. осадки} 10/10 600 м
[Cb cap]
-5.3 -8.6 78 -15 -15 по сезону 1020.3 992.2
Ю 9-13
{15}
2000 м слаб. ливневой снег {метель} 10/10 300 м
[Cb cap]
-5.4 -7.2 87 -15 -15 по сезону 1019.9 991.8
Ю 8-12
{13}
2000 м слаб. ливневой снег {метель} 10/10 300 м
[Cb cap]
-5.3 -7.4 85 -14 -14 по сезону 1018.7 990.6
ЮЗ 6-10
{12}
10 км позёмок {ливн. осадки} 10/10 600 м
[Sc]
-5.1 -7.2 85 -13 -13 по сезону 1019.6 991.5 -5.1 1
ЮЗ 6
{10}
10 км слаб. снег {метель} 10/10 600 м
[Sc]
-4.9 -6.6 88 -13 -13 по сезону 1020.6 992.5
З 4
{11}
20 км {снег, метель} ясно -10.3 -13.1 80 -17 -17 по сезону 1023.9 995.3
З 4 20 км ясно -14.5 -16.5 85 -22 -22 холодно 1026.7 997.5
Ю 3 20 км 10/10 1000 м
[Sc]
-16.4 -18.3 85 -23 -23 по сезону 1028.1 998.7 -20.8 0.0 8
Ю 2 10 км слаб. ливневой снег 10/10 700 м
[Cb cap]
-15.3 -18.0 80 -20 -20 по сезону 1029.4 1000.1
Ю 3 20 км {ливн. осадки, снег} 10/0
[Ci sp]
-16.1 -19.5 75 -23 -21 по сезону 1031.0 1001.4
Ю 2 20 км 10/0
[Cs]
-15.7 -19.1 75 -21 -20 по сезону 1030.6 1001.0
Ю 1 20 км 10/0
[Cs]
-18.2 -21.5 75 -21 -21 по сезону 1029.8 1000.1 -14.6 0.0
штиль 0 20 км 10/0
[Ci sp]
-18.8 -21.4 80 -19 -19 по сезону 1029.2 999.4
штиль 0 20 км 10/0
[Ac und]
-21.0 -24.3 75 -21 -21 по сезону 1027.5 997.5
штиль 0 20 км 10/0
[Ac und]
-21.1 -24.4 75 -21 -21 по сезону 1025.4 995.4
С 1 20 км 10/0
[Ac und]
-17.5 -20.9 75 -20 -20 по сезону 1022.3 992.9 -21.3 9
штиль 0 2000 м снег 10/10 90 м
[Frnb Ns]
-13.9 -16.6 80 -14 -14 тепло 1020.0 990.9 -21.3 9
Ю 7 2000 м снег {метель} 10/10 240 м
[Frnb Ns]
-6.8 -8.8 86 -15 -15 по сезону 1018.4 990.3
ЮЗ 4 4000 м слаб. снег {метель} 10/10 300 м
[Frnb Ns]
-6.4 -8.4 86 -13 -13 тепло 1018.7 990.5
ЮЗ 3 20 км {снег, метель} 10/10 600 м
[Sc]
-7.9 -10.1 84 -14 -14 по сезону 1020.7 992.3 -6.1 5
Ю 2 4000 м слаб. ливневой снег 10/10 300 м
[Cb cap]
-8.9 -10.9 85 -13 -13 тепло 1021.9 993.4
Ю 3 20 км {ливн. осадки} 10/10 300 м
[Sc]
-8.9 -10.9 85 -15 -15 тепло 1022.6 994.1
Ю 5 4000 м слаб. ливневой снег {метель} 10/10 300 м
[Cb cap]
-7.9 -10.1 84 -15 -15 тепло 1022.1 993.7
Ю 5 4000 м слаб. ливневой снег {метель} 10/10 300 м
[Cb cap]
-7.3 -9.8 82 -15 -15 тепло 1021.6 993.3 -9.7 1 15
Ю 7-10
{11}
4000 м слаб. ливневой снег {метель} 10/10 300 м
[Cb cap]
-6.7 -9.1 83 -15 -15 тепло 1021.2 993.0
Ю 10-12
{12}
4000 м слаб. снег 10/10 600 м
[Sc]
-6.3 -8.6 84 -16 -16 по сезону 1022.0 993.8
Ю 9-12
{13}
2000 м слаб. ливневой снег 10/10 300 м
[Cb cap]
-5.3 -7.1 87 -15 -15 по сезону 1020.8 992.7
Ю 8-11
{12}
10 км слаб. ливневой снег 10/10 600 м
[Cb cap]
-5.7 -7.9 84 -15 -15 по сезону 1021.6 993.5 -5.3 0.8
Ю 9-12
{12}
20 км позёмок {ливн. осадки} 10/10 600 м
[Sc]
-5.6 -9.0 77 -15 -15 тепло 1022.6 994.5
Ю 9-12
{12}
20 км позёмок {ливн. осадки} 10/10 600 м
[Sc]
-6.2 -10.7 70 -15 -15 тепло 1022.9 994.7
Ю 10-12
{13}
20 км позёмок 10/10 600 м
[Sc]
-5.7 -10.0 72 -15 -15 тепло 1022.9 994.9
Ю 9-12
{13}
20 км позёмок 10/10 600 м
[Sc]
-6.3 -12.2 63 -16 -16 тепло 1024.5 996.2 -6.3 0.0 9
Ю 10-14
{15}
20 км сильный позёмок 10/10 1000 м
[Sc]
-5.9 -11.7 64 -15 -15 тепло 1023.8 995.5 -6.5
Ю 12-16
{18}
4000 м метель 10/5 1000 м
[Sc Ac und]
-4.6 -10.3 64 -14 -14 тепло 1023.5 995.4
Ю 13-18
{20}
2000 м метель {снег} 10/10 600 м
[Sc]
-2.4 -5.7 78 -12 -12 тепло 1021.3 993.5
Ю 12-18
{19}
2000 м метель {ливн. осадки, снег} 10/10 300 м
[Cb cap]
-2.7 -5.0 84 -12 -12 тепло 1021.3 993.5 -2.4 0.4
Ю 11-16
{18}
2000 м слаб. ливневой снег {метель} 10/10 300 м
[Cb cap]
-2.4 -5.7 78 -12 -12 тепло 1020.9 993.1
Ю 11-14
{17}
2000 м метель {ливн. осадки} 10/10 600 м
[Cb cap]
-2.6 -5.6 80 -12 -12 тепло 1020.3 992.5
Ю 13-19
{19}
500 м сильная метель {ливн. осадки} 10/10 600 м
[Cb cap]
-2.0 -4.1 86 -12 -12 тепло 1019.6 991.8
Ю 14-19
{21}
500 м ливневой снег {метель} 10/10 300 м
[Cb cap]
-1.5 -3.8 84 -11 -11 тепло 1019.2 991.5 -3.1 0.3 8
Ю 9-15
{19}
4000 м метель {ливн. осадки} 10/10 1000 м
[Cb cap]
-1.3 -5.7 72 -9 -9 тепло 1017.7 990.2
Ю 8-15
{15}
20 км позёмок {ливн. осадки} 10/10 1000 м
[Sc]
-0.9 -7.4 61 -8 -8 тепло 1016.8 989.3
Ю 7-10
{15}
20 км позёмок 10/6 1000 м
[Sc Ac trans]
-0.7 -7.1 62 -8 -8 тепло 1015.3 987.9
Ю 8-10
{12}
20 км позёмок 10/6 1000 м
[Sc Ac und]
-1.1 -7.7 61 -8 -8 тепло 1014.6 987.1 -0.5 0.2
Ю 3
{12}
20 км позёмок ясно -5.5 -9.7 72 -11 -11 тепло 1013.7 985.8
Местоположение метеостанции Рубцовск (Алтайский край, Россия): широта 51.58 долгота 81.20 высота над уровнем моря 219 м.
В архиве по умолчанию представлена погода в Рубцовске за последнюю неделю. Архивные данные за месяц целиком и за предыдущие месяцы, начиная с января 2011 года, Вы можете получить, выбрав интересующий диапазон дат из раскрывающегося списка и нажав кнопку "Найти!".
*Определитесь, кто Вы:
Внимание! Время в таблицах - всемирное. Для получения местного времени необходимо прибавить поправку, которая равна 7 ч.
Смотрите также архив погоды в соседних городах и на ближайших метеорологических станциях:
Партнеры нашего сайта:      
Пояснения к столбцам:
  • Ветер - указаны скорость ветра в м/с - средняя за 10 мин, порывы в срок и между сроками (в фигурных скобках) и направление, откуда дует ветер: С - северный,
  • СВ - северо-восточный, В - восточный, ЮВ - юго-восточный, Ю - южный, ЮЗ - юго-западный, З - западный, СЗ - северо-западный.
  • Видимость - горизонтальная дальность видимости в метрах или километрах. При видимости от 1 до 10 км при отсутствии осадков обычно наблюдается дымка, при ухудшении видимости до 1 км и менее - туман. В сухую погоду видимость может ухудшаться дымом, пылью или мглою.
  • Явления - указаны атмосферные явления, наблюдавшиеся в срок или в последний час перед сроком; фигурными скобками обозначены явления, наблюдавшиеся между сроками (за 1-3 часа до срока); квадратными скобками обозначены град или гололедные отложения с указанием их диаметра в мм.
  • Облачность - указаны через наклонную черту общая и нижняя облачность в баллах и высота нижней границы облаков в метрах; квадратными скобками обозначены формы облаков: Ci - перистые, Cs - перисто-слоистые, Cc - перисто-кучевые, Ac - высококучевые, As - высокослоистые, Sc - слоисто-кучевые, Ns - слоисто-дождевые, Cu - кучевые, Cb - кучево-дождевые. Подробнее классификацию облаков см. в Атласе облаков (PDF).
  • T - Температура воздуха - температура, измеренная на высоте 2 м над землей.
  • Td - Температура точки росы - температура, при понижении до которой содержащийся в воздухе водяной пар достигнет насыщения.
  • f - Относительная влажность воздуха - влажноcть воздуха, измеренная на высоте 2 м над землей.
  • Te - Эффективная температура - температура, которую ощущает одетый по сезону человек в тени. Характеристика душности погоды. При расчете учитывается влияние влажности воздуха и скорости ветра на теплоощущения человека.
  • Tes - Эффективная температура на солнце - температура, которую ощущает человек, с поправкой на солнечный нагрев. Характеристика знойности погоды. Зависит от высоты солнца над горизонтом, облачности и скорости ветра. Ночью, в пасмурную погоду, а также при ветре 12 м/с и более поправка равна нулю.
  • P - Атмосферное давление - приведенное к уровню моря атмосферное давление.
  • Po - Атмосферное давление - измеренное на уровне метеостанции атмосферное давление.
  • Tmin - Минимальная температура - минимум температуры воздуха на высоте 2 м над землей.
  • Tmax - Максимальная температура - максимум температуры воздуха на высоте 2 м над землей.
  • R - Количество осадков - Количество выпавших осадков за период времени, мм. При наведении курсора мыши на число - период времени, за который выпало указанное количество осадков.
  • R24 - Количество осадков - Количество выпавших осадков за 24 часа, мм.
  • S - Снежный покров - Высота снежного покрова, см. При наведении курсора мыши на число - состояние снежного покрова и степень покрытия местности в баллах.